Time,TemperatureF,DewpointF,PressureIn,WindDirection,WindDirectionDegrees,WindSpeedMPH,WindSpeedGustMPH,Humidity,HourlyPrecipIn,Conditions,Clouds,dailyrainin,SoftwareType,DateUTC
2013-03-08 00:00:00,56.5,53.3,30.12,South,190,13.0,13.0,89,0.00,,,0.00,Wunderground v.1.15,2013-03-08 06:00:00,
2013-03-08 00:06:00,56.4,53.2,30.12,SSE,163,13.0,21.0,89,0.00,,,0.00,Wunderground v.1.15,2013-03-08 06:06:00,
2013-03-08 00:12:00,56.3,53.4,30.11,SSE,163,13.0,18.0,90,0.00,,,0.00,Wunderground v.1.15,2013-03-08 06:12:00,
2013-03-08 00:18:00,56.2,53.3,30.12,SSE,157,14.0,18.0,90,0.00,,,0.00,Wunderground v.1.15,2013-03-08 06:18:00,
2013-03-08 00:24:00,56.1,53.2,30.12,South,176,12.0,15.0,90,0.00,,,0.00,Wunderground v.1.15,2013-03-08 06:24:00,
2013-03-08 00:30:00,56.1,53.2,30.12,SSW,195,11.0,14.0,90,0.00,,,0.00,Wunderground v.1.15,2013-03-08 06:30:00,
2013-03-08 00:36:00,56.0,53.1,30.11,SSE,164,12.0,18.0,90,0.00,,,0.00,Wunderground v.1.15,2013-03-08 06:36:00,
2013-03-08 00:42:00,56.1,53.2,30.11,SE,135,13.0,14.0,90,0.00,,,0.00,Wunderground v.1.15,2013-03-08 06:42:00,
2013-03-08 00:48:00,56.1,53.2,30.11,SSE,160,12.0,14.0,90,0.00,,,0.00,Wunderground v.1.15,2013-03-08 06:48:00,
2013-03-08 00:54:00,56.1,53.2,30.11,South,180,11.0,18.0,90,0.00,,,0.00,Wunderground v.1.15,2013-03-08 06:54:00,
2013-03-08 01:00:00,56.2,53.3,30.12,SE,125,12.0,16.0,90,0.00,,,0.00,Wunderground v.1.15,2013-03-08 07:00:00,
2013-03-08 01:06:00,56.2,53.3,30.11,SSE,160,12.0,19.0,90,0.00,,,0.00,Wunderground v.1.15,2013-03-08 07:06:00,
2013-03-08 01:12:00,56.2,53.3,30.11,SSE,158,12.0,14.0,90,0.00,,,0.00,Wunderground v.1.15,2013-03-08 07:12:00,
2013-03-08 01:18:00,56.2,53.3,30.11,SSE,150,11.0,14.0,90,0.00,,,0.00,Wunderground v.1.15,2013-03-08 07:18:00,
2013-03-08 01:24:00,56.2,53.3,30.11,SSE,162,11.0,16.0,90,0.00,,,0.00,Wunderground v.1.15,2013-03-08 07:24:00,
2013-03-08 01:30:00,56.1,53.2,30.11,SSE,156,12.0,17.0,90,0.00,,,0.00,Wunderground v.1.15,2013-03-08 07:30:00,
2013-03-08 01:36:00,56.1,53.2,30.11,SE,145,12.0,17.0,90,0.00,,,0.00,Wunderground v.1.15,2013-03-08 07:36:00,
2013-03-08 01:42:00,56.0,53.4,30.10,SSE,148,11.0,17.0,91,0.00,,,0.00,Wunderground v.1.15,2013-03-08 07:42:00,
2013-03-08 01:48:00,56.0,53.4,30.10,South,181,11.0,19.0,91,0.00,,,0.00,Wunderground v.1.15,2013-03-08 07:48:00,
2013-03-08 01:54:00,55.9,53.3,30.10,SSE,162,11.0,16.0,91,0.00,,,0.00,Wunderground v.1.15,2013-03-08 07:54:00,
2013-03-08 02:00:00,55.8,53.5,30.10,SSE,156,11.0,14.0,92,0.00,,,0.00,Wunderground v.1.15,2013-03-08 08:00:00,
2013-03-08 02:06:00,55.6,53.6,30.10,SSE,147,11.0,14.0,93,0.00,,,0.00,Wunderground v.1.15,2013-03-08 08:06:00,
2013-03-08 02:12:00,55.4,53.7,30.10,SSE,160,12.0,14.0,94,0.00,,,0.00,Wunderground v.1.15,2013-03-08 08:12:00,
2013-03-08 02:18:00,55.2,53.5,30.09,SSE,162,11.0,14.0,94,0.00,,,0.00,Wunderground v.1.15,2013-03-08 08:18:00,
2013-03-08 02:24:00,55.2,53.8,30.10,SSE,165,11.0,15.0,95,0.00,,,0.00,Wunderground v.1.15,2013-03-08 08:24:00,
2013-03-08 02:30:00,55.1,53.7,30.10,South,183,12.0,14.0,95,0.00,,,0.00,Wunderground v.1.15,2013-03-08 08:30:00,
2013-03-08 02:36:00,55.1,53.7,30.09,SSE,154,12.0,14.0,95,0.00,,,0.00,Wunderground v.1.15,2013-03-08 08:36:00,
2013-03-08 02:42:00,55.1,53.7,30.09,South,172,12.0,16.0,95,0.00,,,0.00,Wunderground v.1.15,2013-03-08 08:42:00,
2013-03-08 02:48:00,55.1,54.0,30.08,SE,134,12.0,16.0,96,0.00,,,0.00,Wunderground v.1.15,2013-03-08 08:48:00,
2013-03-08 02:54:00,55.1,54.0,30.08,SSE,167,12.0,16.0,96,0.00,,,0.00,Wunderground v.1.15,2013-03-08 08:54:00,
2013-03-08 03:00:00,55.1,54.0,30.08,SSE,150,11.0,11.0,96,0.00,,,0.00,Wunderground v.1.15,2013-03-08 09:00:00,
2013-03-08 03:06:00,55.1,54.0,30.08,SE,145,11.0,21.0,96,0.00,,,0.00,Wunderground v.1.15,2013-03-08 09:06:00,
2013-03-08 03:12:00,55.1,54.0,30.08,SE,145,12.0,14.0,96,0.00,,,0.00,Wunderground v.1.15,2013-03-08 09:12:00,
2013-03-08 03:18:00,55.1,54.3,30.08,SE,144,12.0,14.0,97,0.00,,,0.00,Wunderground v.1.15,2013-03-08 09:18:00,
2013-03-08 03:24:00,55.1,54.3,30.08,SSE,160,11.0,14.0,97,0.00,,,0.00,Wunderground v.1.15,2013-03-08 09:24:00,
2013-03-08 03:30:00,55.2,54.4,30.07,SE,128,11.0,11.0,97,0.00,,,0.00,Wunderground v.1.15,2013-03-08 09:30:00,
2013-03-08 03:36:00,55.3,54.5,30.07,SE,145,11.0,17.0,97,0.00,,,0.00,Wunderground v.1.15,2013-03-08 09:36:00,
2013-03-08 03:42:00,55.3,54.5,30.07,SSW,205,11.0,15.0,97,0.00,,,0.00,Wunderground v.1.15,2013-03-08 09:42:00,
2013-03-08 03:48:00,55.3,54.5,30.07,SE,145,11.0,15.0,97,0.00,,,0.00,Wunderground v.1.15,2013-03-08 09:48:00,
2013-03-08 03:54:00,55.3,54.5,30.07,SSE,160,11.0,16.0,97,0.00,,,0.00,Wunderground v.1.15,2013-03-08 09:54:00,
2013-03-08 04:00:00,55.4,54.6,30.06,South,172,12.0,12.0,97,0.00,,,0.00,Wunderground v.1.15,2013-03-08 10:00:00,
2013-03-08 04:06:00,55.4,54.6,30.07,SE,137,12.0,18.0,97,0.00,,,0.00,Wunderground v.1.15,2013-03-08 10:06:00,
2013-03-08 04:12:00,55.4,54.6,30.07,SSE,150,11.0,14.0,97,0.00,,,0.00,Wunderground v.1.15,2013-03-08 10:12:00,
2013-03-08 04:18:00,55.4,54.6,30.07,SE,126,10.0,14.0,97,0.00,,,0.00,Wunderground v.1.15,2013-03-08 10:18:00,
2013-03-08 04:24:00,55.5,54.7,30.06,SE,133,10.0,14.0,97,0.00,,,0.00,Wunderground v.1.15,2013-03-08 10:24:00,
2013-03-08 04:30:00,55.5,54.9,30.06,SSE,150,10.0,14.0,98,0.00,,,0.00,Wunderground v.1.15,2013-03-08 10:30:00,
2013-03-08 04:36:00,55.6,55.0,30.07,SSE,149,10.0,14.0,98,0.00,,,0.00,Wunderground v.1.15,2013-03-08 10:36:00,
2013-03-08 04:42:00,55.7,55.1,30.07,SSW,196,11.0,17.0,98,0.00,,,0.00,Wunderground v.1.15,2013-03-08 10:42:00,
2013-03-08 04:48:00,55.8,55.2,30.07,South,191,11.0,17.0,98,0.00,,,0.00,Wunderground v.1.15,2013-03-08 10:48:00,
2013-03-08 04:54:00,55.9,55.3,30.07,SSE,162,10.0,14.0,98,0.00,,,0.00,Wunderground v.1.15,2013-03-08 10:54:00,
2013-03-08 05:00:00,56.0,55.4,30.07,SE,145,10.0,10.0,98,0.00,,,0.00,Wunderground v.1.15,2013-03-08 11:00:00,
2013-03-08 05:06:00,56.1,55.5,30.07,SSE,153,10.0,14.0,98,0.00,,,0.00,Wunderground v.1.15,2013-03-08 11:06:00,
2013-03-08 05:12:00,56.2,55.6,30.08,SSW,193,10.0,14.0,98,0.00,,,0.00,Wunderground v.1.15,2013-03-08 11:12:00,
2013-03-08 05:18:00,56.2,55.6,30.08,SE,145,10.0,14.0,98,0.00,,,0.00,Wunderground v.1.15,2013-03-08 11:18:00,
2013-03-08 05:24:00,56.3,55.7,30.08,SSE,151,9.0,14.0,98,0.00,,,0.00,Wunderground v.1.15,2013-03-08 11:24:00,
2013-03-08 05:30:00,56.3,55.7,30.08,SSE,152,10.0,10.0,98,0.00,,,0.00,Wunderground v.1.15,2013-03-08 11:30:00,
2013-03-08 05:36:00,56.3,55.7,30.08,SSW,211,9.0,14.0,98,0.00,,,0.00,Wunderground v.1.15,2013-03-08 11:36:00,
2013-03-08 05:42:00,56.4,55.8,30.08,SSE,148,10.0,14.0,98,0.00,,,0.00,Wunderground v.1.15,2013-03-08 11:42:00,
2013-03-08 05:48:00,56.4,55.8,30.08,SSE,158,9.0,14.0,98,0.00,,,0.00,Wunderground v.1.15,2013-03-08 11:48:00,
2013-03-08 05:54:00,56.4,55.8,30.08,SE,141,9.0,14.0,98,0.00,,,0.00,Wunderground v.1.15,2013-03-08 11:54:00,
2013-03-08 06:00:00,56.4,55.8,30.08,South,173,9.0,9.0,98,0.00,,,0.00,Wunderground v.1.15,2013-03-08 12:00:00,
2013-03-08 06:06:00,56.4,55.8,30.07,SE,145,9.0,14.0,98,0.00,,,0.00,Wunderground v.1.15,2013-03-08 12:06:00,
2013-03-08 06:12:00,56.4,55.8,30.07,ESE,110,10.0,12.0,98,0.00,,,0.00,Wunderground v.1.15,2013-03-08 12:12:00,
2013-03-08 06:18:00,56.4,55.8,30.07,SE,146,11.0,14.0,98,0.00,,,0.00,Wunderground v.1.15,2013-03-08 12:18:00,
2013-03-08 06:24:00,56.5,55.9,30.08,SE,131,10.0,12.0,98,0.00,,,0.00,Wunderground v.1.15,2013-03-08 12:24:00,
2013-03-08 06:30:00,56.5,55.9,30.08,SSE,149,10.0,10.0,98,0.00,,,0.00,Wunderground v.1.15,2013-03-08 12:30:00,
2013-03-08 06:36:00,56.5,55.9,30.08,SSW,197,9.0,13.0,98,0.00,,,0.00,Wunderground v.1.15,2013-03-08 12:36:00,
2013-03-08 06:42:00,56.6,56.0,30.08,SSW,195,10.0,10.0,98,0.00,,,0.00,Wunderground v.1.15,2013-03-08 12:42:00,
2013-03-08 06:48:00,56.6,56.0,30.08,SSE,150,9.0,11.0,98,0.00,,,0.00,Wunderground v.1.15,2013-03-08 12:48:00,
2013-03-08 06:54:00,56.6,56.0,30.08,SE,125,9.0,12.0,98,0.00,,,0.00,Wunderground v.1.15,2013-03-08 12:54:00,
2013-03-08 07:00:00,56.6,56.0,30.08,SSE,154,9.0,9.0,98,0.00,,,0.00,Wunderground v.1.15,2013-03-08 13:00:00,
2013-03-08 07:06:00,56.7,56.1,30.08,SE,133,9.0,15.0,98,0.00,,,0.00,Wunderground v.1.15,2013-03-08 13:06:00,
2013-03-08 07:12:00,56.7,56.1,30.08,South,174,10.0,14.0,98,0.00,,,0.00,Wunderground v.1.15,2013-03-08 13:12:00,
2013-03-08 07:18:00,56.7,56.1,30.08,SE,146,10.0,14.0,98,0.00,,,0.00,Wunderground v.1.15,2013-03-08 13:18:00,
2013-03-08 07:24:00,56.7,56.1,30.08,SSE,150,10.0,14.0,98,0.00,,,0.00,Wunderground v.1.15,2013-03-08 13:24:00,
2013-03-08 07:30:00,56.7,56.1,30.08,SE,146,10.0,10.0,98,0.00,,,0.00,Wunderground v.1.15,2013-03-08 13:30:00,
2013-03-08 07:36:00,56.8,56.2,30.08,SSE,162,10.0,14.0,98,0.00,,,0.00,Wunderground v.1.15,2013-03-08 13:36:00,
2013-03-08 07:42:00,56.8,56.2,30.08,SSE,158,11.0,14.0,98,0.00,,,0.00,Wunderground v.1.15,2013-03-08 13:42:00,
2013-03-08 07:48:00,56.9,56.6,30.08,SE,144,13.0,15.0,99,0.00,,,0.00,Wunderground v.1.15,2013-03-08 13:48:00,
2013-03-08 07:54:00,57.0,56.7,30.09,SE,141,12.0,14.0,99,0.00,,,0.00,Wunderground v.1.15,2013-03-08 13:54:00,
2013-03-08 08:00:00,57.1,56.8,30.09,SSE,158,11.0,14.0,99,0.00,,,0.00,Wunderground v.1.15,2013-03-08 14:00:00,
2013-03-08 08:06:00,57.2,56.9,30.10,SSE,156,11.0,14.0,99,0.00,,,0.00,Wunderground v.1.15,2013-03-08 14:06:00,
2013-03-08 08:12:00,57.2,56.9,30.10,SE,134,10.0,14.0,99,0.00,,,0.00,Wunderground v.1.15,2013-03-08 14:12:00,
2013-03-08 08:18:00,57.3,57.0,30.10,SE,130,9.0,14.0,99,0.00,,,0.00,Wunderground v.1.15,2013-03-08 14:18:00,
2013-03-08 08:24:00,57.4,57.1,30.11,SE,129,9.0,16.0,99,0.00,,,0.00,Wunderground v.1.15,2013-03-08 14:24:00,
2013-03-08 08:30:00,57.4,57.1,30.11,SE,125,11.0,11.0,99,0.00,,,0.00,Wunderground v.1.15,2013-03-08 14:30:00,
2013-03-08 08:36:00,57.5,57.2,30.11,SSE,153,10.0,14.0,99,0.00,,,0.00,Wunderground v.1.15,2013-03-08 14:36:00,
2013-03-08 08:42:00,57.6,57.3,30.10,SSE,156,9.0,14.0,99,0.00,,,0.00,Wunderground v.1.15,2013-03-08 14:42:00,
2013-03-08 08:48:00,57.7,57.4,30.11,SE,142,8.0,14.0,99,0.00,,,0.00,Wunderground v.1.15,2013-03-08 14:48:00,
2013-03-08 08:54:00,57.8,57.5,30.11,SSE,167,9.0,14.0,99,0.00,,,0.00,Wunderground v.1.15,2013-03-08 14:54:00,
2013-03-08 09:00:00,57.9,57.6,30.10,ESE,122,8.0,14.0,99,0.00,,,0.00,Wunderground v.1.15,2013-03-08 15:00:00,
2013-03-08 09:06:00,58.2,57.9,30.11,SSE,155,10.0,14.0,99,0.00,,,0.00,Wunderground v.1.15,2013-03-08 15:06:00,
2013-03-08 09:12:00,58.5,58.2,30.12,SE,135,10.0,14.0,99,0.00,,,0.00,Wunderground v.1.15,2013-03-08 15:12:00,
2013-03-08 09:18:00,58.6,58.3,30.12,SSE,148,9.0,14.0,99,0.00,,,0.00,Wunderground v.1.15,2013-03-08 15:18:00,
2013-03-08 09:24:00,58.6,58.3,30.13,South,181,8.0,14.0,99,0.00,,,0.00,Wunderground v.1.15,2013-03-08 15:24:00,
2013-03-08 09:30:00,58.6,58.3,30.13,SE,138,9.0,14.0,99,0.00,,,0.00,Wunderground v.1.15,2013-03-08 15:30:00,
2013-03-08 09:36:00,58.6,58.3,30.13,SSE,156,8.0,14.0,99,0.00,,,0.00,Wunderground v.1.15,2013-03-08 15:36:00,
2013-03-08 09:42:00,58.5,58.2,30.13,SE,141,8.0,14.0,99,0.00,,,0.00,Wunderground v.1.15,2013-03-08 15:42:00,
2013-03-08 09:48:00,58.6,58.3,30.13,SE,138,8.0,14.0,99,0.00,,,0.00,Wunderground v.1.15,2013-03-08 15:48:00,
2013-03-08 09:54:00,58.7,58.4,30.13,SE,145,8.0,14.0,99,0.00,,,0.00,Wunderground v.1.15,2013-03-08 15:54:00,
2013-03-08 10:00:00,58.8,58.5,30.13,SSE,162,7.0,7.0,99,0.00,,,0.00,Wunderground v.1.15,2013-03-08 16:00:00,
2013-03-08 10:06:00,58.8,58.5,30.13,SSE,165,7.0,14.0,99,0.00,,,0.00,Wunderground v.1.15,2013-03-08 16:06:00,
2013-03-08 10:12:00,58.8,58.5,30.12,SE,138,7.0,9.0,99,0.00,,,0.00,Wunderground v.1.15,2013-03-08 16:12:00,
2013-03-08 10:18:00,58.8,58.5,30.12,SE,139,7.0,14.0,99,0.00,,,0.00,Wunderground v.1.15,2013-03-08 16:18:00,
2013-03-08 10:24:00,58.9,58.6,30.11,South,186,7.0,14.0,99,0.00,,,0.00,Wunderground v.1.15,2013-03-08 16:24:00,
2013-03-08 10:30:00,59.0,58.7,30.11,SE,143,7.0,7.0,99,0.00,,,0.00,Wunderground v.1.15,2013-03-08 16:30:00,
2013-03-08 10:36:00,59.1,58.8,30.11,SE,146,7.0,14.0,99,0.00,,,0.00,Wunderground v.1.15,2013-03-08 16:36:00,
2013-03-08 10:42:00,59.1,58.8,30.11,SE,141,7.0,14.0,99,0.00,,,0.00,Wunderground v.1.15,2013-03-08 16:42:00,
2013-03-08 10:48:00,59.2,58.9,30.10,SE,136,8.0,14.0,99,0.00,,,0.00,Wunderground v.1.15,2013-03-08 16:48:00,
2013-03-08 10:54:00,59.2,58.9,30.11,SE,146,9.0,14.0,99,0.00,,,0.00,Wunderground v.1.15,2013-03-08 16:54:00,
2013-03-08 11:00:00,59.3,59.0,30.11,SE,146,9.0,9.0,99,0.00,,,0.00,Wunderground v.1.15,2013-03-08 17:00:00,
2013-03-08 11:06:00,59.3,59.0,30.10,SSE,163,8.0,14.0,99,0.00,,,0.00,Wunderground v.1.15,2013-03-08 17:06:00,
2013-03-08 11:12:00,59.5,59.2,30.11,SSE,158,8.0,14.0,99,0.00,,,0.00,Wunderground v.1.15,2013-03-08 17:12:00,
2013-03-08 11:18:00,59.5,59.2,30.12,SSE,153,8.0,14.0,99,0.00,,,0.00,Wunderground v.1.15,2013-03-08 17:18:00,
2013-03-08 11:24:00,59.6,59.3,30.11,SE,136,9.0,14.0,99,0.00,,,0.00,Wunderground v.1.15,2013-03-08 17:24:00,
2013-03-08 11:30:00,59.6,59.3,30.11,SSE,158,9.0,14.0,99,0.00,,,0.00,Wunderground v.1.15,2013-03-08 17:30:00,
2013-03-08 11:36:00,59.5,59.2,30.10,SSE,159,9.0,14.0,99,0.00,,,0.00,Wunderground v.1.15,2013-03-08 17:36:00,
2013-03-08 11:42:00,59.5,59.2,30.10,SSE,162,9.0,18.0,99,0.00,,,0.00,Wunderground v.1.15,2013-03-08 17:42:00,
2013-03-08 11:48:00,59.6,59.3,30.10,SSE,160,11.0,18.0,99,0.00,,,0.00,Wunderground v.1.15,2013-03-08 17:48:00,
2013-03-08 11:54:00,59.7,59.4,30.10,SSE,148,10.0,14.0,99,0.00,,,0.00,Wunderground v.1.15,2013-03-08 17:54:00,
2013-03-08 12:00:00,59.7,59.4,30.10,SSE,149,9.0,14.0,99,0.00,,,0.00,Wunderground v.1.15,2013-03-08 18:00:00,
2013-03-08 12:06:00,59.7,59.4,30.10,ESE,103,7.0,14.0,99,0.00,,,0.00,Wunderground v.1.15,2013-03-08 18:06:00,
2013-03-08 12:12:00,59.7,59.4,30.10,SE,134,7.0,14.0,99,0.00,,,0.00,Wunderground v.1.15,2013-03-08 18:12:00,
2013-03-08 12:18:00,59.7,59.4,30.10,South,176,8.0,14.0,99,0.00,,,0.00,Wunderground v.1.15,2013-03-08 18:18:00,
2013-03-08 12:24:00,59.7,59.4,30.10,ESE,103,8.0,14.0,99,0.00,,,0.00,Wunderground v.1.15,2013-03-08 18:24:00,
2013-03-08 12:30:00,59.8,59.5,30.09,SSE,158,9.0,14.0,99,0.00,,,0.00,Wunderground v.1.15,2013-03-08 18:30:00,
2013-03-08 12:36:00,59.9,59.6,30.08,South,188,9.0,14.0,99,0.00,,,0.00,Wunderground v.1.15,2013-03-08 18:36:00,
2013-03-08 12:42:00,59.9,59.6,30.07,SE,134,9.0,14.0,99,0.00,,,0.00,Wunderground v.1.15,2013-03-08 18:42:00,
2013-03-08 12:48:00,59.9,59.6,30.07,SSE,150,9.0,14.0,99,0.00,,,0.00,Wunderground v.1.15,2013-03-08 18:48:00,
2013-03-08 12:54:00,60.0,59.7,30.07,SSE,153,7.0,14.0,99,0.00,,,0.00,Wunderground v.1.15,2013-03-08 18:54:00,
2013-03-08 13:00:00,60.1,59.8,30.07,SSW,210,7.0,7.0,99,0.00,,,0.00,Wunderground v.1.15,2013-03-08 19:00:00,
2013-03-08 13:06:00,60.1,59.8,30.07,SE,145,7.0,14.0,99,0.00,,,0.00,Wunderground v.1.15,2013-03-08 19:06:00,
2013-03-08 13:12:00,60.1,59.8,30.07,SE,134,9.0,14.0,99,0.00,,,0.00,Wunderground v.1.15,2013-03-08 19:12:00,
2013-03-08 13:18:00,60.1,59.8,30.07,SE,131,9.0,14.0,99,0.00,,,0.00,Wunderground v.1.15,2013-03-08 19:18:00,
2013-03-08 13:24:00,60.1,59.8,30.07,South,170,8.0,14.0,99,0.00,,,0.00,Wunderground v.1.15,2013-03-08 19:24:00,
2013-03-08 13:30:00,60.2,59.9,30.07,SE,135,8.0,8.0,99,0.00,,,0.00,Wunderground v.1.15,2013-03-08 19:30:00,
2013-03-08 13:36:00,60.3,60.0,30.07,SSE,149,6.0,14.0,99,0.00,,,0.00,Wunderground v.1.15,2013-03-08 19:36:00,
2013-03-08 13:42:00,60.1,59.8,30.07,SE,124,5.0,8.0,99,0.00,,,0.00,Wunderground v.1.15,2013-03-08 19:42:00,
2013-03-08 13:48:00,59.9,59.6,30.07,SSE,155,6.0,14.0,99,0.00,,,0.01,Wunderground v.1.15,2013-03-08 19:48:00,
2013-03-08 13:54:00,59.9,59.6,30.07,SSE,159,6.0,14.0,99,0.00,,,0.01,Wunderground v.1.15,2013-03-08 19:54:00,
2013-03-08 14:00:00,60.0,59.7,30.07,SSE,151,6.0,6.0,99,0.04,,,0.02,Wunderground v.1.15,2013-03-08 20:00:00,
2013-03-08 14:06:00,60.0,59.7,30.06,ESE,120,5.0,14.0,99,0.04,,,0.02,Wunderground v.1.15,2013-03-08 20:06:00,
2013-03-08 14:12:00,60.1,59.8,30.05,SE,139,5.0,14.0,99,0.07,,,0.03,Wunderground v.1.15,2013-03-08 20:12:00,
2013-03-08 14:18:00,60.2,59.9,30.05,SSE,160,5.0,14.0,99,0.10,,,0.04,Wunderground v.1.15,2013-03-08 20:18:00,
2013-03-08 14:24:00,60.2,59.9,30.05,ESE,120,6.0,14.0,99,0.06,,,0.04,Wunderground v.1.15,2013-03-08 20:24:00,
2013-03-08 14:30:00,60.3,60.0,30.05,SSE,158,6.0,6.0,99,0.04,,,0.04,Wunderground v.1.15,2013-03-08 20:30:00,
2013-03-08 14:36:00,60.3,60.0,30.04,SSE,153,5.0,14.0,99,0.00,,,0.04,Wunderground v.1.15,2013-03-08 20:36:00,
2013-03-08 14:42:00,60.4,60.1,30.04,SE,142,6.0,14.0,99,0.00,,,0.04,Wunderground v.1.15,2013-03-08 20:42:00,
2013-03-08 14:48:00,60.5,60.2,30.04,SSE,155,6.0,14.0,99,0.00,,,0.04,Wunderground v.1.15,2013-03-08 20:48:00,
2013-03-08 14:54:00,60.5,60.2,30.03,SE,134,7.0,14.0,99,0.00,,,0.04,Wunderground v.1.15,2013-03-08 20:54:00,
2013-03-08 15:00:00,60.7,60.4,30.03,SE,129,7.0,7.0,99,0.00,,,0.04,Wunderground v.1.15,2013-03-08 21:00:00,
2013-03-08 15:06:00,60.8,60.5,30.03,SE,142,7.0,14.0,99,0.00,,,0.04,Wunderground v.1.15,2013-03-08 21:06:00,
2013-03-08 15:12:00,60.8,60.5,30.02,SSE,162,7.0,14.0,99,0.00,,,0.04,Wunderground v.1.15,2013-03-08 21:12:00,
2013-03-08 15:18:00,60.8,60.5,30.02,SSE,148,7.0,14.0,99,0.00,,,0.04,Wunderground v.1.15,2013-03-08 21:18:00,
2013-03-08 15:24:00,60.7,60.4,30.02,ESE,122,8.0,14.0,99,0.00,,,0.04,Wunderground v.1.15,2013-03-08 21:24:00,
2013-03-08 15:30:00,60.8,60.5,30.02,SE,134,8.0,8.0,99,0.00,,,0.04,Wunderground v.1.15,2013-03-08 21:30:00,
2013-03-08 15:36:00,60.9,60.6,30.02,SSE,158,8.0,14.0,99,0.00,,,0.04,Wunderground v.1.15,2013-03-08 21:36:00,
2013-03-08 15:42:00,60.9,60.6,30.02,SSE,148,10.0,14.0,99,0.00,,,0.04,Wunderground v.1.15,2013-03-08 21:42:00,
2013-03-08 15:48:00,61.0,60.7,30.02,SE,144,11.0,14.0,99,0.00,,,0.04,Wunderground v.1.15,2013-03-08 21:48:00,
2013-03-08 15:54:00,61.1,60.8,30.02,SSE,166,10.0,14.0,99,0.00,,,0.04,Wunderground v.1.15,2013-03-08 21:54:00,
2013-03-08 16:00:00,61.2,60.9,30.02,South,180,11.0,17.0,99,0.00,,,0.04,Wunderground v.1.15,2013-03-08 22:00:00,
2013-03-08 16:06:00,61.3,61.0,30.02,SE,131,12.0,17.0,99,0.00,,,0.04,Wunderground v.1.15,2013-03-08 22:06:00,
2013-03-08 16:12:00,61.4,61.1,30.02,SE,142,12.0,14.0,99,0.00,,,0.04,Wunderground v.1.15,2013-03-08 22:12:00,
2013-03-08 16:18:00,61.5,61.2,30.02,SE,146,10.0,14.0,99,0.00,,,0.04,Wunderground v.1.15,2013-03-08 22:18:00,
2013-03-08 16:24:00,61.6,61.3,30.02,SSE,155,10.0,13.0,99,0.00,,,0.04,Wunderground v.1.15,2013-03-08 22:24:00,
2013-03-08 16:30:00,61.5,61.2,30.02,SE,142,11.0,11.0,99,0.00,,,0.04,Wunderground v.1.15,2013-03-08 22:30:00,
2013-03-08 16:36:00,61.5,61.2,30.02,SSE,158,11.0,14.0,99,0.00,,,0.04,Wunderground v.1.15,2013-03-08 22:36:00,
2013-03-08 16:42:00,61.5,61.2,30.02,SE,141,10.0,14.0,99,0.00,,,0.04,Wunderground v.1.15,2013-03-08 22:42:00,
2013-03-08 16:48:00,61.5,61.2,30.01,SSE,153,11.0,15.0,99,0.00,,,0.04,Wunderground v.1.15,2013-03-08 22:48:00,
2013-03-08 16:54:00,61.5,61.2,30.00,SSE,152,11.0,14.0,99,0.00,,,0.04,Wunderground v.1.15,2013-03-08 22:54:00,
2013-03-08 17:00:00,61.5,61.2,30.00,SSE,152,11.0,14.0,99,0.00,,,0.04,Wunderground v.1.15,2013-03-08 23:00:00,
2013-03-08 17:06:00,61.5,61.2,30.00,SE,136,12.0,14.0,99,0.00,,,0.04,Wunderground v.1.15,2013-03-08 23:06:00,
2013-03-08 17:12:00,61.5,61.2,30.00,SE,142,12.0,15.0,99,0.00,,,0.04,Wunderground v.1.15,2013-03-08 23:12:00,
2013-03-08 17:18:00,61.5,61.2,29.99,SSE,165,13.0,20.0,99,0.00,,,0.04,Wunderground v.1.15,2013-03-08 23:18:00,
2013-03-08 17:24:00,61.5,61.2,29.99,SSE,153,13.0,14.0,99,0.00,,,0.04,Wunderground v.1.15,2013-03-08 23:24:00,
2013-03-08 17:30:00,61.5,61.2,29.99,SE,146,13.0,16.0,99,0.00,,,0.04,Wunderground v.1.15,2013-03-08 23:30:00,
2013-03-08 17:36:00,61.5,61.2,29.99,SSE,166,12.0,16.0,99,0.00,,,0.04,Wunderground v.1.15,2013-03-08 23:36:00,
2013-03-08 17:42:00,61.4,61.1,29.99,SE,136,12.0,14.0,99,0.00,,,0.04,Wunderground v.1.15,2013-03-08 23:42:00,
2013-03-08 17:48:00,61.3,61.0,29.99,SSE,167,13.0,14.0,99,0.00,,,0.04,Wunderground v.1.15,2013-03-08 23:48:00,
2013-03-08 17:54:00,61.3,61.0,30.00,SSE,147,13.0,14.0,99,0.00,,,0.04,Wunderground v.1.15,2013-03-08 23:54:00,
2013-03-08 18:00:00,61.2,60.9,30.00,SE,134,12.0,12.0,99,0.00,,,0.04,Wunderground v.1.15,2013-03-09 00:00:00,
2013-03-08 18:06:00,61.2,60.9,30.00,SSE,148,12.0,14.0,99,0.00,,,0.04,Wunderground v.1.15,2013-03-09 00:06:00,
2013-03-08 18:12:00,61.2,60.9,30.00,SSE,158,12.0,14.0,99,0.00,,,0.04,Wunderground v.1.15,2013-03-09 00:12:00,
2013-03-08 18:18:00,61.2,60.9,30.01,SE,125,11.0,16.0,99,0.00,,,0.04,Wunderground v.1.15,2013-03-09 00:18:00,
2013-03-08 18:24:00,61.2,60.9,30.01,SSE,148,11.0,14.0,99,0.00,,,0.04,Wunderground v.1.15,2013-03-09 00:24:00,
2013-03-08 18:30:00,61.2,60.9,30.01,SSE,159,11.0,14.0,99,0.00,,,0.04,Wunderground v.1.15,2013-03-09 00:30:00,
2013-03-08 18:36:00,61.2,60.9,30.02,SSE,155,10.0,14.0,99,0.00,,,0.04,Wunderground v.1.15,2013-03-09 00:36:00,
2013-03-08 18:42:00,61.2,60.9,30.02,SE,136,10.0,14.0,99,0.00,,,0.04,Wunderground v.1.15,2013-03-09 00:42:00,
2013-03-08 18:48:00,61.2,60.9,30.02,ESE,117,10.0,15.0,99,0.00,,,0.04,Wunderground v.1.15,2013-03-09 00:48:00,
2013-03-08 18:54:00,61.2,60.9,30.01,South,173,12.0,14.0,99,0.00,,,0.04,Wunderground v.1.15,2013-03-09 00:54:00,
2013-03-08 19:00:00,61.2,60.9,30.01,SE,132,12.0,21.0,99,0.00,,,0.04,Wunderground v.1.15,2013-03-09 01:00:00,
2013-03-08 19:06:00,61.2,60.9,30.01,SE,136,12.0,21.0,99,0.00,,,0.04,Wunderground v.1.15,2013-03-09 01:06:00,
2013-03-08 19:12:00,61.2,60.9,30.01,South,172,12.0,14.0,99,0.00,,,0.04,Wunderground v.1.15,2013-03-09 01:12:00,
2013-03-08 19:18:00,61.1,60.8,30.01,SSE,148,11.0,14.0,99,0.00,,,0.04,Wunderground v.1.15,2013-03-09 01:18:00,
2013-03-08 19:24:00,61.1,60.8,30.01,SE,125,10.0,18.0,99,0.00,,,0.04,Wunderground v.1.15,2013-03-09 01:24:00,
2013-03-08 19:30:00,61.1,60.5,30.01,SE,130,10.0,10.0,98,0.00,,,0.04,Wunderground v.1.15,2013-03-09 01:30:00,
2013-03-08 19:36:00,61.0,60.4,30.02,SE,138,10.0,14.0,98,0.00,,,0.04,Wunderground v.1.15,2013-03-09 01:36:00,
2013-03-08 19:42:00,61.1,60.5,30.02,SSW,192,11.0,14.0,98,0.00,,,0.04,Wunderground v.1.15,2013-03-09 01:42:00,
2013-03-08 19:48:00,61.0,60.4,30.02,SE,145,12.0,15.0,98,0.00,,,0.04,Wunderground v.1.15,2013-03-09 01:48:00,
2013-03-08 19:54:00,61.0,60.4,30.02,SSE,148,12.0,15.0,98,0.00,,,0.04,Wunderground v.1.15,2013-03-09 01:54:00,
2013-03-08 20:00:00,60.9,60.0,30.02,SSE,155,11.0,11.0,97,0.00,,,0.04,Wunderground v.1.15,2013-03-09 02:00:00,
2013-03-08 20:06:00,60.8,59.9,30.03,SE,144,11.0,21.0,97,0.00,,,0.04,Wunderground v.1.15,2013-03-09 02:06:00,
2013-03-08 20:12:00,60.8,59.9,30.03,ESE,122,11.0,14.0,97,0.00,,,0.04,Wunderground v.1.15,2013-03-09 02:12:00,
2013-03-08 20:18:00,60.7,59.6,30.03,SSE,150,11.0,14.0,96,0.00,,,0.04,Wunderground v.1.15,2013-03-09 02:18:00,
2013-03-08 20:24:00,60.7,59.6,30.03,SSE,162,11.0,14.0,96,0.00,,,0.04,Wunderground v.1.15,2013-03-09 02:24:00,
2013-03-08 20:30:00,60.7,59.6,30.03,SSE,158,11.0,11.0,96,0.00,,,0.04,Wunderground v.1.15,2013-03-09 02:30:00,
2013-03-08 20:36:00,60.7,59.3,30.03,SSE,149,13.0,16.0,95,0.00,,,0.04,Wunderground v.1.15,2013-03-09 02:36:00,
2013-03-08 20:42:00,60.7,59.3,30.03,SSE,161,13.0,14.0,95,0.00,,,0.04,Wunderground v.1.15,2013-03-09 02:42:00,
2013-03-08 20:48:00,60.6,59.5,30.03,SE,143,12.0,14.0,96,0.00,,,0.04,Wunderground v.1.15,2013-03-09 02:48:00,
2013-03-08 20:54:00,60.5,59.4,30.03,SSE,159,12.0,14.0,96,0.00,,,0.04,Wunderground v.1.15,2013-03-09 02:54:00,
2013-03-08 21:00:00,60.4,59.3,30.03,SE,143,13.0,13.0,96,0.00,,,0.04,Wunderground v.1.15,2013-03-09 03:00:00,
2013-03-08 21:06:00,60.3,59.2,30.03,South,189,14.0,14.0,96,0.00,,,0.04,Wunderground v.1.15,2013-03-09 03:06:00,
2013-03-08 21:12:00,60.3,59.2,30.03,ESE,121,14.0,17.0,96,0.00,,,0.04,Wunderground v.1.15,2013-03-09 03:12:00,
2013-03-08 21:18:00,60.2,58.8,30.03,SE,140,14.0,20.0,95,0.00,,,0.04,Wunderground v.1.15,2013-03-09 03:18:00,
2013-03-08 21:24:00,60.1,58.7,30.03,South,182,13.0,19.0,95,0.00,,,0.04,Wunderground v.1.15,2013-03-09 03:24:00,
2013-03-08 21:30:00,60.0,58.6,30.02,South,173,14.0,17.0,95,0.00,,,0.04,Wunderground v.1.15,2013-03-09 03:30:00,
2013-03-08 21:36:00,60.0,58.6,30.02,SSE,165,16.0,21.0,95,0.00,,,0.04,Wunderground v.1.15,2013-03-09 03:36:00,
2013-03-08 21:42:00,59.9,58.5,30.02,SE,146,15.0,18.0,95,0.00,,,0.04,Wunderground v.1.15,2013-03-09 03:42:00,
2013-03-08 21:48:00,59.8,58.4,30.03,SSE,165,14.0,21.0,95,0.00,,,0.04,Wunderground v.1.15,2013-03-09 03:48:00,
2013-03-08 21:54:00,59.7,58.3,30.03,SSE,165,14.0,16.0,95,0.00,,,0.04,Wunderground v.1.15,2013-03-09 03:54:00,
2013-03-08 22:00:00,59.6,58.2,30.02,SSE,166,14.0,15.0,95,0.00,,,0.04,Wunderground v.1.15,2013-03-09 04:00:00,
2013-03-08 22:06:00,59.6,58.2,30.02,SE,145,15.0,20.0,95,0.00,,,0.04,Wunderground v.1.15,2013-03-09 04:06:00,
2013-03-08 22:12:00,59.5,58.1,30.02,SSE,148,15.0,24.0,95,0.00,,,0.04,Wunderground v.1.15,2013-03-09 04:12:00,
2013-03-08 22:18:00,59.5,57.8,30.02,SE,131,17.0,25.0,94,0.00,,,0.04,Wunderground v.1.15,2013-03-09 04:18:00,
2013-03-08 22:24:00,59.5,57.8,30.02,SSE,148,16.0,17.0,94,0.00,,,0.04,Wunderground v.1.15,2013-03-09 04:24:00,
2013-03-08 22:30:00,59.4,57.7,30.02,SE,128,14.0,14.0,94,0.00,,,0.04,Wunderground v.1.15,2013-03-09 04:30:00,
2013-03-08 22:36:00,59.3,57.9,30.02,South,171,14.0,14.0,95,0.00,,,0.04,Wunderground v.1.15,2013-03-09 04:36:00,
2013-03-08 22:42:00,59.3,57.9,30.02,SE,138,13.0,17.0,95,0.00,,,0.04,Wunderground v.1.15,2013-03-09 04:42:00,
2013-03-08 22:48:00,59.3,57.9,30.02,SW,224,13.0,17.0,95,0.00,,,0.04,Wunderground v.1.15,2013-03-09 04:48:00,
2013-03-08 22:54:00,59.3,57.9,30.02,SE,134,13.0,17.0,95,0.00,,,0.04,Wunderground v.1.15,2013-03-09 04:54:00,
2013-03-08 23:00:00,59.3,57.9,30.02,SSW,201,15.0,16.0,95,0.00,,,0.04,Wunderground v.1.15,2013-03-09 05:00:00,
2013-03-08 23:02:00,59.3,57.9,30.01,SSE,151,15.0,16.0,95,0.00,,,0.04,Wunderground v.1.15,2013-03-09 05:02:00,
2013-03-08 23:04:00,59.4,58.0,30.01,SSE,162,16.0,20.0,95,0.00,,,0.04,Wunderground v.1.15,2013-03-09 05:04:00,
2013-03-08 23:08:00,59.4,58.0,30.01,South,180,17.0,24.0,95,0.00,,,0.04,Wunderground v.1.15,2013-03-09 05:08:00,
2013-03-08 23:14:00,59.4,58.0,30.01,SE,145,16.0,17.0,95,0.00,,,0.04,Wunderground v.1.15,2013-03-09 05:14:00,
2013-03-08 23:20:00,59.4,58.0,30.00,South,173,16.0,18.0,95,0.00,,,0.04,Wunderground v.1.15,2013-03-09 05:20:00,
2013-03-08 23:26:00,59.3,57.9,30.00,ESE,117,15.0,18.0,95,0.00,,,0.04,Wunderground v.1.15,2013-03-09 05:26:00,
2013-03-08 23:32:00,59.3,57.9,30.00,SE,146,16.0,17.0,95,0.00,,,0.04,Wunderground v.1.15,2013-03-09 05:32:00,
2013-03-08 23:38:00,59.3,57.9,30.00,SSE,148,16.0,17.0,95,0.00,,,0.04,Wunderground v.1.15,2013-03-09 05:38:00,
2013-03-08 23:44:00,59.3,57.9,30.00,SE,127,16.0,22.0,95,0.00,,,0.04,Wunderground v.1.15,2013-03-09 05:44:00,
2013-03-08 23:50:00,59.3,57.9,29.99,South,190,17.0,17.0,95,0.00,,,0.04,Wunderground v.1.15,2013-03-09 05:50:00,
2013-03-08 23:56:00,59.2,57.8,29.99,ESE,113,17.0,19.0,95,0.00,,,0.04,Wunderground v.1.15,2013-03-09 05:56:00,